When you browse on this site, cookies collect data to enhance your experience and personalize the content and advertising you see.
Visit our Privacy Policy to learn more. By continuing to use the site, you agree to this use of cookies and data.
  • In Latvia
  • List of Countries
  • For 7 days
  • Water Temperature
  • Satellite Maps
  • Weather Map
  • Weather Widgets
  • user-avatar
    Login

    Hourly Weather Tirana

    Today, 19 May, Sunday

    Time Temperature Precipitation Wind Pressure Humidity
    00:00 +16°C° 0 mm 2 mps 749 mmHg 89%
    01:00 +16°C° 0 mm 1 mps 748 mmHg 90%
    02:00 +16°C° 0 mm 1 mps 748 mmHg 86%
    03:00 +16°C° 0 mm 1 mps 748 mmHg 83%
    04:00 +18°C° 0 mm 1 mps 748 mmHg 80%
    05:00 +19°C° 0 mm 1 mps 747 mmHg 74%
    06:00 +20°C° 0 mm 1 mps 747 mmHg 67%
    07:00 +22°C° 0 mm 1 mps 747 mmHg 61%
    08:00 +23°C° 0 mm 1 mps 747 mmHg 56%
    09:00 +24°C° 0 mm 2 mps 747 mmHg 51%
    10:00 +26°C° 0 mm 2 mps 746 mmHg 47%
    11:00 +25°C° 0 mm 3 mps 746 mmHg 49%
    12:00 +25°C° 0 mm 4 mps 746 mmHg 52%
    13:00 +25°C° 0 mm 5 mps 746 mmHg 54%
    14:00 +23°C° 0 mm 5 mps 746 mmHg 59%
    15:00 +22°C° 0 mm 6 mps 746 mmHg 65%
    16:00 +22°C° 0 mm 6 mps 746 mmHg 70%
    17:00 +20°C° 1.6 mm 6 mps 746 mmHg 76%
    18:00 +19°C° 1.6 mm 6 mps 747 mmHg 83%
    19:00 +17°C° 1.6 mm 7 mps 747 mmHg 89%
    20:00 +17°C° 0.8 mm 6 mps 747 mmHg 90%
    21:00 +16°C° 0.8 mm 5 mps 748 mmHg 91%
    22:00 +16°C° 0.8 mm 5 mps 748 mmHg 92%
    23:00 +15°C° 0.5 mm 5 mps 749 mmHg 92%

    Tomorrow, 20 May, Monday

    Time Temperature Precipitation Wind Pressure Humidity
    00:00 +15°C° 0.5 mm 4 mps 749 mmHg 92%
    01:00 +15°C° 0.5 mm 4 mps 749 mmHg 91%
    02:00 +15°C° 0.2 mm 4 mps 749 mmHg 91%
    03:00 +14°C° 0.2 mm 4 mps 749 mmHg 91%
    04:00 +14°C° 0.2 mm 3 mps 749 mmHg 90%
    05:00 +16°C° 0.1 mm 3 mps 749 mmHg 84%
    06:00 +18°C° 0.1 mm 3 mps 749 mmHg 78%
    07:00 +19°C° 0.1 mm 3 mps 750 mmHg 72%
    08:00 +19°C° 1.1 mm 4 mps 750 mmHg 74%
    09:00 +19°C° 1.1 mm 4 mps 750 mmHg 75%
    10:00 +18°C° 1.1 mm 4 mps 751 mmHg 77%
    11:00 +19°C° 0.5 mm 5 mps 751 mmHg 75%
    12:00 +19°C° 0.5 mm 6 mps 751 mmHg 72%
    13:00 +19°C° 0.5 mm 6 mps 751 mmHg 70%
    14:00 +19°C° 0.6 mm 6 mps 751 mmHg 70%
    15:00 +19°C° 0.6 mm 6 mps 751 mmHg 70%
    16:00 +19°C° 0.6 mm 6 mps 751 mmHg 70%
    17:00 +17°C° 1.2 mm 6 mps 751 mmHg 74%
    18:00 +16°C° 1.2 mm 6 mps 751 mmHg 79%
    19:00 +15°C° 1.2 mm 6 mps 751 mmHg 83%
    20:00 +15°C° 1.1 mm 6 mps 751 mmHg 84%
    21:00 +14°C° 1.1 mm 5 mps 752 mmHg 85%
    22:00 +14°C° 1.1 mm 5 mps 752 mmHg 86%
    23:00 +13°C° 0.6 mm 5 mps 752 mmHg 87%

    Day after tomorrow, 21 May, Tuesday

    Time Temperature Precipitation Wind Pressure Humidity
    00:00 +13°C° 0.6 mm 5 mps 752 mmHg 87%
    01:00 +13°C° 0.6 mm 4 mps 752 mmHg 87%
    02:00 +13°C° 0.4 mm 4 mps 752 mmHg 87%
    03:00 +12°C° 0.4 mm 4 mps 752 mmHg 88%
    04:00 +12°C° 0.4 mm 4 mps 752 mmHg 88%
    05:00 +14°C° 0.1 mm 4 mps 752 mmHg 84%
    06:00 +15°C° 0.1 mm 4 mps 752 mmHg 80%
    07:00 +16°C° 0.1 mm 5 mps 752 mmHg 76%
    08:00 +17°C° 0.1 mm 5 mps 752 mmHg 71%
    09:00 +20°C° 0.1 mm 5 mps 753 mmHg 65%
    10:00 +21°C° 0.1 mm 5 mps 753 mmHg 59%
    11:00 +21°C° 0 mm 5 mps 753 mmHg 58%
    12:00 +21°C° 0 mm 5 mps 753 mmHg 57%
    13:00 +22°C° 0 mm 5 mps 753 mmHg 55%
    14:00 +21°C° 0 mm 5 mps 753 mmHg 57%
    15:00 +21°C° 0 mm 4 mps 753 mmHg 58%
    16:00 +21°C° 0 mm 4 mps 753 mmHg 60%
    17:00 +19°C° 0 mm 4 mps 753 mmHg 65%
    18:00 +18°C° 0 mm 3 mps 753 mmHg 71%
    19:00 +17°C° 0 mm 3 mps 754 mmHg 76%
    20:00 +16°C° 0 mm 3 mps 754 mmHg 77%
    21:00 +16°C° 0 mm 3 mps 754 mmHg 77%
    22:00 +14°C° 0 mm 3 mps 755 mmHg 78%
    23:00 +14°C° 0 mm 3 mps 755 mmHg 77%

    22 May, Wednesday

    Time Temperature Precipitation Wind Pressure Humidity
    00:00 +14°C° 0 mm 3 mps 755 mmHg 76%
    01:00 +14°C° 0 mm 2 mps 755 mmHg 76%
    02:00 +14°C° 0 mm 2 mps 755 mmHg 75%
    03:00 +14°C° 0 mm 2 mps 754 mmHg 75%
    04:00 +14°C° 0 mm 2 mps 754 mmHg 74%
    05:00 +15°C° 0 mm 2 mps 754 mmHg 71%
    06:00 +17°C° 0 mm 2 mps 754 mmHg 67%
    07:00 +18°C° 0 mm 2 mps 754 mmHg 63%
    08:00 +19°C° 0 mm 2 mps 754 mmHg 60%
    09:00 +22°C° 0 mm 1 mps 755 mmHg 57%
    10:00 +23°C° 0 mm 1 mps 755 mmHg 54%
    11:00 +24°C° 0 mm 1 mps 754 mmHg 54%
    12:00 +24°C° 0 mm 2 mps 754 mmHg 55%
    13:00 +24°C° 0 mm 3 mps 754 mmHg 55%
    14:00 +24°C° 0 mm 3 mps 754 mmHg 56%
    15:00 +24°C° 0 mm 3 mps 753 mmHg 58%
    16:00 +24°C° 0 mm 2 mps 753 mmHg 59%
    17:00 +21°C° 0 mm 2 mps 753 mmHg 66%
    18:00 +19°C° 0 mm 2 mps 753 mmHg 73%
    19:00 +18°C° 0 mm 2 mps 753 mmHg 80%
    20:00 +17°C° 0 mm 2 mps 754 mmHg 81%
    21:00 +18°C° 0 mm 1 mps 754 mmHg 82%
    22:00 +16°C° 0 mm 1 mps 754 mmHg 82%
    23:00 +16°C° 0 mm 1 mps 754 mmHg 81%

    23 May, Thursday

    Time Temperature Precipitation Wind Pressure Humidity
    00:00 +15°C° 0 mm 0 mps 754 mmHg 80%
    01:00 +15°C° 0 mm 0 mps 753 mmHg 78%
    02:00 +15°C° 0 mm 0 mps 753 mmHg 76%
    03:00 +15°C° 0 mm 0 mps 753 mmHg 74%
    04:00 +15°C° 0 mm 0 mps 753 mmHg 72%
    05:00 +16°C° 0 mm 0 mps 753 mmHg 69%
    06:00 +17°C° 0 mm 0 mps 753 mmHg 65%
    07:00 +18°C° 0 mm 0 mps 753 mmHg 61%
    08:00 +21°C° 0 mm 1 mps 753 mmHg 58%
    09:00 +23°C° 0 mm 2 mps 753 mmHg 55%
    10:00 +24°C° 0 mm 3 mps 752 mmHg 53%
    11:00 +24°C° 0 mm 3 mps 752 mmHg 53%
    12:00 +23°C° 0 mm 4 mps 752 mmHg 53%
    13:00 +23°C° 0 mm 4 mps 752 mmHg 53%
    14:00 +23°C° 0 mm 4 mps 751 mmHg 56%
    15:00 +22°C° 0 mm 4 mps 751 mmHg 58%
    16:00 +21°C° 0 mm 4 mps 751 mmHg 60%
    17:00 +20°C° 0 mm 4 mps 751 mmHg 67%
    18:00 +19°C° 0 mm 3 mps 751 mmHg 73%
    19:00 +17°C° 0 mm 3 mps 751 mmHg 79%
    20:00 +17°C° 0 mm 2 mps 751 mmHg 80%
    21:00 +16°C° 0 mm 2 mps 751 mmHg 81%
    22:00 +16°C° 0 mm 1 mps 752 mmHg 82%
    23:00 +16°C° 0 mm 1 mps 751 mmHg 84%

    24 May, Friday

    Time Temperature Precipitation Wind Pressure Humidity
    00:00 +15°C° 0 mm 1 mps 751 mmHg 86%
    01:00 +14°C° 0 mm 1 mps 751 mmHg 88%
    02:00 +14°C° 0 mm 1 mps 751 mmHg 87%
    03:00 +14°C° 0 mm 1 mps 751 mmHg 87%
    04:00 +14°C° 0 mm 1 mps 750 mmHg 86%
    05:00 +15°C° 0 mm 1 mps 751 mmHg 82%
    06:00 +17°C° 0 mm 2 mps 751 mmHg 78%
    07:00 +18°C° 0 mm 2 mps 751 mmHg 73%
    08:00 +19°C° 0 mm 2 mps 751 mmHg 70%
    09:00 +20°C° 0 mm 2 mps 750 mmHg 67%
    10:00 +21°C° 0 mm 2 mps 750 mmHg 64%
    11:00 +23°C° 0 mm 2 mps 750 mmHg 64%
    12:00 +22°C° 0 mm 3 mps 749 mmHg 63%
    13:00 +23°C° 0 mm 4 mps 749 mmHg 63%
    14:00 +22°C° 0 mm 4 mps 749 mmHg 64%
    15:00 +22°C° 0 mm 3 mps 748 mmHg 64%
    16:00 +22°C° 0 mm 3 mps 748 mmHg 65%
    17:00 +20°C° 0 mm 2 mps 748 mmHg 72%
    18:00 +20°C° 0 mm 1 mps 748 mmHg 80%
    19:00 +16°C° 0 mm 0 mps 748 mmHg 87%
    20:00 +18°C° 0 mm 1 mps 749 mmHg 88%
    21:00 +18°C° 0 mm 1 mps 749 mmHg 88%
    22:00 +16°C° 0 mm 2 mps 749 mmHg 89%
    23:00 +16°C° 0 mm 2 mps 749 mmHg 89%
    Show more